DateTimeUTC,F1_A11,F1_S11,BsB_S11,BsG_S11,BsR_S11,BbsB_S11,BbsG_S11,BbsR_S11,BaB_A11,BaG_A11,BaR_A11,Tu_S11,T_S11,Uu_S11,U_S11,P_S11,T1_A11
2021-03-18T05:00:00Z,00040200,20000000,,,,,,,0000.33,0000.74,-000.34,17.3,24.2,08.3,05.4,0647.6,30.9
2021-03-18T05:01:00Z,00040200,20000000,,,,,,,-000.84,-001.04,-000.32,17.3,24.2,08.3,05.4,0647.7,30.9
2021-03-18T05:02:00Z,00040200,20000000,,,,,,,-000.08,-000.02,-000.02,17.2,24.2,08.3,05.4,0647.7,30.9
2021-03-18T05:03:00Z,00040200,60000000,,,,,,,0001.57,0001.52,0001.03,17.2,24.2,08.3,05.4,0647.7,30.9
2021-03-18T05:04:00Z,00040200,40000000,0000.55,0000.68,0000.68,0000.48,0000.13,0000.05,-000.40,-000.37,-000.28,17.4,24.1,08.2,05.4,0648.7,30.9
2021-03-18T05:05:00Z,00040200,00000000,0000.65,0000.49,0000.46,0000.20,0000.20,0000.14,0000.90,0000.78,0000.73,17.4,24.0,08.2,05.4,0648.8,30.9
2021-03-18T05:06:00Z,00040200,00000000,-000.04,0000.44,0000.35,-000.10,0000.12,0000.31,0000.46,0000.56,0000.59,17.4,24.0,08.1,05.4,0648.6,30.9
2021-03-18T05:07:00Z,00040200,00000000,0000.10,0000.42,0000.70,-000.06,0000.01,0000.13,0000.47,0000.70,0000.54,17.4,24.0,08.2,05.5,0648.7,30.9
2021-03-18T05:08:00Z,00040200,00000000,0000.58,0000.75,0000.69,-000.39,-000.04,0000.15,0001.67,0001.08,0001.06,17.4,24.0,08.5,05.6,0648.7,30.9
2021-03-18T05:09:00Z,00040200,00000000,0000.84,0000.59,0000.47,-000.27,-000.08,0000.24,0000.04,0000.11,0000.13,17.4,24.0,08.6,05.7,0648.8,30.9
2021-03-18T05:10:00Z,00040200,00000000,-000.01,0000.71,0000.42,-000.11,0000.11,0000.48,0000.56,0000.78,0000.67,17.4,24.0,08.4,05.6,0648.8,30.9
2021-03-18T05:11:00Z,00040200,00000000,0000.01,0000.55,0000.45,-000.09,0000.16,0000.06,-000.40,-000.36,-000.55,17.4,24.0,08.5,05.6,0648.9,30.9
2021-03-18T05:12:00Z,00040200,00000000,-000.10,0000.80,0000.37,-000.25,0000.25,0000.20,0002.77,0002.65,0002.71,17.4,24.0,08.7,05.8,0648.7,30.9
2021-03-18T05:13:00Z,00040200,00000000,0000.46,0000.29,0000.36,0000.42,0000.07,0000.02,-001.33,-001.35,-001.50,17.4,24.0,09.0,06.0,0648.7,30.9
2021-03-18T05:14:00Z,00040200,00000000,0000.54,0000.26,0000.45,0000.09,0000.16,0000.06,0000.13,0000.10,0000.26,17.4,24.0,08.3,05.5,0648.9,30.9
2021-03-18T05:15:00Z,00040200,00000000,0000.30,0000.50,0000.50,-000.10,0000.15,0000.41,0000.59,0000.86,0000.59,17.4,24.0,08.4,05.6,0648.6,30.9
2021-03-18T05:16:00Z,00040200,00000000,0000.40,0000.58,0000.83,0000.09,0000.31,0000.16,0000.37,-000.29,0000.46,17.4,24.0,08.5,05.7,0648.6,30.9
2021-03-18T05:17:00Z,00040200,00000000,0000.72,0000.58,0000.25,0000.10,0000.23,0000.24,0000.54,0000.66,0000.05,17.4,24.0,08.3,05.5,0648.6,30.9
2021-03-18T05:18:00Z,00040200,00000000,-000.24,0000.27,0000.57,-000.13,0000.06,0000.17,-000.49,-000.04,-000.19,17.4,24.0,08.1,05.4,0649.0,30.9
2021-03-18T05:19:00Z,00040200,00000000,0000.72,0000.61,0000.42,0000.33,0000.12,0000.31,0001.02,0000.20,0000.63,17.4,24.0,08.0,05.4,0648.7,30.9
2021-03-18T05:20:00Z,00040200,00000000,0000.76,0000.35,0000.52,-000.40,0000.06,0000.26,0002.09,0002.36,0001.77,17.4,24.0,08.4,05.6,0648.5,30.9
2021-03-18T05:21:00Z,00040200,00000000,0000.56,0000.57,0000.47,0000.36,-000.21,0000.14,-000.73,-000.68,-000.48,17.4,24.0,08.9,05.9,0648.6,30.9
2021-03-18T05:22:00Z,00040200,00000000,0000.17,0000.42,0000.62,-000.10,0000.08,0000.03,-000.00,-000.07,-000.08,17.4,24.0,08.6,05.7,0648.6,30.9
2021-03-18T05:23:00Z,00040200,00000000,-000.17,0000.69,0000.54,0000.34,0000.12,0000.26,0000.06,0000.32,0000.53,17.4,24.0,08.3,05.6,0648.7,30.9
2021-03-18T05:24:00Z,00040200,00000000,0000.98,0000.49,0000.46,-000.22,0000.03,0000.25,0000.75,0000.63,0000.19,17.4,24.0,08.2,05.5,0648.7,30.9
2021-03-18T05:25:00Z,00040200,00000000,0000.97,0000.40,0000.44,0000.11,0000.12,0000.05,-000.08,0000.13,0000.71,17.5,24.0,08.4,05.6,0649.0,30.9
2021-03-18T05:26:00Z,00040200,00000000,0000.66,0000.49,0000.34,0000.32,0000.12,0000.37,0001.12,0001.32,0000.57,17.5,24.0,08.6,05.7,0648.9,30.9
2021-03-18T05:27:00Z,00040200,00000000,0000.04,0000.61,0000.55,-000.05,0000.15,0000.03,0001.19,0001.06,0000.80,17.6,24.1,08.7,05.8,0648.7,30.9
2021-03-18T05:28:00Z,00040200,00000000,-000.29,0000.59,0000.28,-000.56,0000.22,-000.14,-000.91,-000.74,-000.11,17.7,24.1,08.4,05.7,0648.9,31.0
2021-03-18T05:29:00Z,00040200,00000000,0000.63,0000.47,0000.50,-000.26,0000.06,0000.38,-002.04,0000.72,0000.44,17.7,24.1,08.3,05.6,0648.8,31.0
2021-03-18T05:30:00Z,00040200,00000000,0000.23,0000.82,0000.49,0000.38,0000.10,0000.07,0003.21,-000.04,-000.10,17.8,24.2,08.3,05.6,0648.8,30.9
2021-03-18T05:31:00Z,00040200,00000000,0000.02,0000.40,0000.16,-000.07,0000.01,0000.03,-000.39,-000.29,-000.13,17.8,24.2,08.2,05.5,0648.8,31.0
2021-03-18T05:32:00Z,00040200,00000000,0000.60,0000.48,0000.35,0000.26,0000.07,-000.05,0000.22,-000.27,-000.06,17.8,24.2,08.0,05.4,0648.8,31.0
2021-03-18T05:33:00Z,00040200,00000000,0000.32,0000.24,0000.38,-000.24,0000.18,0000.02,0000.13,0000.69,0000.63,17.8,24.2,07.8,05.3,0648.8,31.0
2021-03-18T05:34:00Z,00040200,00000000,0000.16,0000.41,0000.38,0000.32,-000.05,0000.35,-000.55,-000.65,-000.45,17.8,24.2,07.9,05.3,0648.8,31.0
2021-03-18T05:35:00Z,00040200,00000000,0000.21,0000.52,0000.34,0000.12,-000.00,0000.12,0000.77,0000.30,0000.25,17.8,24.2,07.7,05.2,0648.9,31.0
2021-03-18T05:36:00Z,00040200,00000000,0000.56,0000.49,0000.17,-000.17,0000.06,0000.08,0000.23,0000.77,0000.21,17.8,24.2,07.8,05.3,0648.9,30.9
2021-03-18T05:37:00Z,00040200,00000000,0000.12,0000.49,0000.45,0000.18,0000.04,-000.14,0000.52,0000.05,0000.54,17.8,24.2,07.8,05.3,0648.8,30.9
2021-03-18T05:38:00Z,00040200,00000000,0000.36,0000.49,0000.29,-000.04,-000.07,-000.15,0000.47,0000.08,0000.18,17.8,24.2,07.8,05.3,0649.1,30.9
2021-03-18T05:39:00Z,00040200,00000000,0000.39,0000.14,0000.38,0000.29,-000.15,0000.08,-000.16,0000.40,0000.14,17.7,24.2,07.7,05.2,0648.7,30.9
2021-03-18T05:40:00Z,00040200,00000000,0000.11,0000.49,0000.22,0000.15,-000.05,0000.43,0000.27,0000.33,0000.15,17.8,24.2,07.7,05.2,0648.7,30.9
2021-03-18T05:41:00Z,00040200,00000000,-000.02,0000.42,0000.19,-000.10,-000.11,0000.10,0001.23,0000.96,0000.87,17.9,24.2,07.8,05.2,0648.9,31.0
2021-03-18T05:42:00Z,00040200,00000000,0000.18,0000.54,0000.29,-000.05,-000.19,0000.11,-000.06,0000.08,0000.39,17.9,24.3,07.9,05.3,0648.9,31.0
2021-03-18T05:43:00Z,00040200,00000000,-000.11,0000.40,0000.27,-000.23,0000.09,-000.05,0000.41,0000.58,0000.37,18.0,24.3,07.8,05.3,0648.8,31.0
2021-03-18T05:44:00Z,00040200,00000000,0000.20,0000.55,0000.13,0000.06,-000.00,0000.09,0000.82,0000.15,0000.39,18.0,24.3,07.7,05.2,0649.0,31.0
2021-03-18T05:45:00Z,00040200,00000000,-000.03,0000.56,0000.28,-000.10,0000.25,0000.12,-000.34,0000.65,-000.38,18.0,24.3,07.8,05.3,0648.8,31.0
2021-03-18T05:46:00Z,00040200,00000000,0000.04,0000.48,0000.30,-000.05,0000.11,0000.13,0001.10,0000.33,0000.73,18.0,24.4,07.6,05.2,0648.9,31.0
2021-03-18T05:47:00Z,00040200,00000000,-000.15,0000.36,0000.13,-000.07,0000.01,0000.16,0000.88,0000.96,0000.63,18.0,24.4,08.0,05.4,0648.9,31.0
2021-03-18T05:48:00Z,00040200,00000000,0000.57,0000.59,0000.37,0000.27,0000.24,0000.06,0000.63,0001.22,0000.74,18.0,24.4,08.2,05.5,0649.1,31.0
2021-03-18T05:49:00Z,00040200,00000000,-000.03,0000.46,0000.30,-000.08,0000.14,-000.07,-000.37,-001.11,-000.33,18.0,24.4,08.1,05.5,0649.2,31.0
2021-03-18T05:50:00Z,00040200,00000000,0000.16,0000.39,0000.24,0000.65,-000.10,0000.18,0000.19,0000.58,0000.54,18.0,24.4,08.0,05.4,0649.2,31.0
2021-03-18T05:51:00Z,00040200,00000000,0000.27,0000.36,0000.28,0000.07,0000.13,0000.12,-000.11,-000.49,-000.49,18.0,24.4,07.8,05.3,0649.0,31.0
2021-03-18T05:52:00Z,00040200,00000000,0000.72,0000.53,0000.51,-000.23,0000.29,0000.21,0000.40,0000.75,0000.40,17.9,24.4,07.9,05.4,0649.1,31.0
2021-03-18T05:53:00Z,00040200,00000000,-000.18,0000.52,0000.37,0000.28,0000.30,-000.15,0001.35,0001.43,0001.25,17.9,24.4,07.9,05.3,0648.8,31.0
2021-03-18T05:54:00Z,00040200,00000000,0000.17,0000.59,0000.17,0000.43,0000.12,-000.08,-000.59,-000.77,-000.36,17.9,24.4,07.9,05.3,0649.0,31.0
2021-03-18T05:55:00Z,00040200,00000000,-000.44,0000.53,0000.34,0000.07,0000.12,0000.22,0001.43,0001.00,0001.02,17.9,24.4,07.9,05.3,0649.2,30.9
2021-03-18T05:56:00Z,00040200,00000000,0000.54,0000.72,0000.32,-000.40,0000.11,0000.36,0000.92,0000.77,0000.43,17.9,24.4,08.3,05.5,0648.9,30.9
2021-03-18T05:57:00Z,00040200,40000000,,,,,,,-000.50,0000.04,-000.29,17.9,24.4,08.2,05.5,0648.9,30.9
2021-03-18T05:58:00Z,00040200,60000000,,,,,,,-001.40,-000.75,-000.57,17.7,24.5,08.0,05.2,0648.4,30.9
2021-03-18T05:59:00Z,00040200,20000000,,,,,,,0000.44,-000.12,-000.01,17.6,24.6,07.6,05.0,0648.2,31.0
